Regional Weather Roundup
Issued by NWS

Home | Current Version | Previous Version | Graphics & Text | Print | Product List | Glossary On
Versions: 1 2 3 4 5 6 7 8 9 10 11 12 13 14 15 16 17 18 19 20 21 22 23 24 25 26 27 28 29 30 31 32 33 34 35 36 37 38 39 40 41 42 43 44 45 46 47 48 49 50
000
ASUS43 KIND 170100
RWRIN

WEATHER ROUNDUP FOR INDIANA
NATIONAL WEATHER SERVICE INDIANAPOLIS IN
900 PM EDT MON OCT 16 2017

NOTE: "FAIR" INDICATES FEW OR NO CLOUDS BELOW 12,000 FEET WITH NO
SIGNIFICANT WEATHER AND/OR OBSTRUCTIONS TO VISIBILITY.

* - STATION DOES NOT REPORT WEATHER SUCH AS PRECIPITATION OR FOG.

+ - STATION NOT QUALITY CONTROLLED BY THE NATIONAL WEATHER SERVICE.
    USE DATA WITH CAUTION...ESPECIALLY DEWPOINT AND RELATIVE
    HUMIDITY OBSERVATIONS.

INZ001>003-010>013-019-020-170200-
NORTHWEST INDIANA

CITY           SKY/WX    TMP DP  RH WIND       PRES   REMARKS
GARY /AIRPORT/ CLEAR     46  43  87 VRB3      30.24S
KNOX *+        CLEAR     45  41  87 S3        30.24S
MICHIGAN CITY+ CLEAR     45  45 100 CALM      30.24S
MONTICELLO +   CLEAR     51  37  58 S5        30.26R
RENSSELAER +   CLEAR     50  32  50 CALM      30.25S

$$

LMZ046-743>745-170200-
SOUTHERN LAKE MICHIGAN

STATION/POSITION TIME  TEMP    WIND        PRES    WAVE
                       AIR SEA DIR/SP/G            HT
                 (UTC) (F)     (DEG/KT/KT) (MB)    (FT)
BURNS HARBOR     0040   58     200/  6/  8 1024.0S
MICHIGAN CITY    0030   58     180/  9/ 10   N/A
5NW MICH CITY    0040   58 58  200/  4/  6   N/A     1

$$

INZ004-005-014>016-021>024-170200-
NORTH CENTRAL INDIANA

CITY           SKY/WX    TMP DP  RH WIND       PRES   REMARKS
ELKHART        CLEAR     46  41  81 CALM      30.25S
GOSHEN         CLEAR     46  38  73 SE5       30.25S
PERU/GRISSOM   CLEAR     47  38  71 S5        30.26S
SOUTH BEND     CLEAR     48  41  76 CALM      30.25S
WARSAW +       CLEAR     45  41  87 CALM      30.26S

$$

INZ006>009-017-018-025>027-170200-
NORTHEAST INDIANA

CITY           SKY/WX    TMP DP  RH WIND       PRES   REMARKS
AUBURN +       CLEAR     43  39  87 CALM      30.28S
FORT WAYNE     CLEAR     46  39  76 S6        30.28R
KENDALLVILLE + CLEAR     45  40  83 S3        30.27S

$$

INZ028-029-035-036-043>045-051>053-170200-
WEST CENTRAL INDIANA

CITY           SKY/WX    TMP DP  RH WIND       PRES   REMARKS
GREENCASTLE +  CLEAR     45  39  81 CALM      30.30S
LAFAYETTE      CLEAR     49  41  74 CALM      30.27R
TERRE HAUTE    CLEAR     47  41  80 CALM      30.30R

$$

INZ030>032-037>040-046>048-054>057-064-065-170200-
CENTRAL INDIANA

CITY           SKY/WX    TMP DP  RH WIND       PRES   REMARKS
COLUMBUS       CLEAR     48  39  71 CALM      30.31R
GREENWOOD *+   CLEAR     48  44  85 CALM      30.30S
INDIANAPOLIS   CLEAR     53  37  54 SW6       30.30S
-EAGLE CREEK   CLEAR     50  40  68 CALM      30.29R
KOKOMO +       CLEAR     47  42  83 S3        30.28S
MT COMFORT *+  CLEAR     45  43  93 CALM      30.30S
SHELBYVILLE    CLEAR     46  40  79 CALM      30.30R

$$

INZ033-034-041-042-049-050-058-059-170200-
EAST CENTRAL INDIANA

CITY           SKY/WX    TMP DP  RH WIND       PRES   REMARKS
MUNCIE         CLEAR     45  41  86 CALM      30.29R
RICHMOND +     CLEAR     43  37  81 CALM      30.30S

$$

INZ060-061-067>069-081>083-085>088-170200-
SOUTHWEST INDIANA

CITY           SKY/WX    TMP DP  RH WIND       PRES   REMARKS
EVANSVILLE     CLEAR     50  40  68 CALM      30.32R
HUNTINGBURG +  CLEAR     51  39  63 CALM      30.32R

$$

INZ062-063-066-070>080-084-089>092-170200-
SOUTH CENTRAL AND SOUTHEAST INDIANA

CITY           SKY/WX    TMP DP  RH WIND       PRES   REMARKS
BLOOMINGTON    CLEAR     45  38  76 CALM      30.31R
MADISON *+     CLEAR     45  39  81 CALM      30.33R
SEYMOUR +      CLEAR     46  39  76 CALM      30.31R

$$




USA.gov is the U.S. government's official web portal to all federal, state and local government web resources and services.